Time,TemperatureF,DewpointF,PressureIn,WindDirection,WindDirectionDegrees,WindSpeedMPH,WindSpeedGustMPH,Humidity,HourlyPrecipIn,Conditions,Clouds,dailyrainin,SoftwareType,DateUTC
2013-02-02 10:54:00,41.0,-1.7,29.44,ESE,121,3.1,4.0,16,0.00,,---,0.00,VWS V13.01,2013-02-02 15:54:00,
2013-02-02 10:55:00,40.8,-1.9,29.44,SE,127,3.6,4.0,16,0.00,,---,0.00,VWS V13.01,2013-02-02 15:55:00,
2013-02-02 10:56:00,41.2,-1.6,29.44,ESE,118,0.0,3.6,16,0.00,,---,0.00,VWS V13.01,2013-02-02 15:56:00,
2013-02-02 11:02:00,41.0,-1.7,29.44,North,9,2.7,2.7,16,0.00,,---,0.00,VWS V13.01,2013-02-02 16:02:00,
2013-02-02 11:07:00,39.0,-3.4,29.44,SSW,206,5.4,5.4,16,0.00,,---,0.00,VWS V13.01,2013-02-02 16:07:00,
2013-02-02 11:12:00,38.5,-3.8,29.44,SSW,200,0.0,2.7,16,0.00,,---,0.00,VWS V13.01,2013-02-02 16:12:00,
2013-02-02 11:17:00,38.1,-4.1,29.44,SW,221,0.0,0.0,16,0.00,,---,0.00,VWS V13.01,2013-02-02 16:17:00,
2013-02-02 11:22:00,41.5,-1.3,29.44,SE,126,3.6,3.6,16,0.00,,---,0.00,VWS V13.01,2013-02-02 16:22:00,
2013-02-02 11:27:00,42.3,-0.7,29.44,NE,38,3.1,3.6,16,0.00,,---,0.00,VWS V13.01,2013-02-02 16:27:00,
2013-02-02 11:32:00,44.1,-0.6,29.44,East,89,0.0,0.0,15,0.00,,---,0.00,VWS V13.01,2013-02-02 16:32:00,
2013-02-02 11:37:00,42.8,-1.6,29.44,NNW,335,5.8,6.3,15,0.00,,---,0.00,VWS V13.01,2013-02-02 16:37:00,
2013-02-02 11:43:00,43.0,-1.5,29.44,NNW,338,4.0,4.0,15,0.00,,---,0.00,VWS V13.01,2013-02-02 16:43:00,
2013-02-02 11:48:00,41.9,-1.0,29.44,SSW,205,3.6,4.0,16,0.00,,---,0.00,VWS V13.01,2013-02-02 16:48:00,
2013-02-02 11:53:00,43.9,-0.8,29.44,NNW,336,2.7,6.3,15,0.00,,---,0.00,VWS V13.01,2013-02-02 16:53:00,
2013-02-02 11:58:00,43.9,-0.8,29.44,NW,319,2.2,5.8,15,0.00,,---,0.00,VWS V13.01,2013-02-02 16:58:00,
2013-02-02 12:03:00,43.7,-0.9,29.44,NNW,338,3.1,4.0,15,0.00,,---,0.00,VWS V13.01,2013-02-02 17:03:00,
2013-02-02 12:08:00,43.7,-0.9,29.44,NW,310,3.6,7.6,15,0.00,,---,0.00,VWS V13.01,2013-02-02 17:08:00,
2013-02-02 12:13:00,43.9,-0.8,29.44,West,273,3.6,5.8,15,0.00,,---,0.00,VWS V13.01,2013-02-02 17:13:00,
2013-02-02 12:19:00,45.1,0.3,29.44,SW,225,0.0,3.1,15,0.00,,---,0.00,VWS V13.01,2013-02-02 17:19:00,
2013-02-02 12:24:00,45.3,0.4,29.44,NW,318,0.0,5.8,15,0.00,,---,0.00,VWS V13.01,2013-02-02 17:24:00,
2013-02-02 12:29:00,43.3,-1.2,29.44,SW,214,3.1,7.6,15,0.00,,---,0.00,VWS V13.01,2013-02-02 17:29:00,
2013-02-02 12:34:00,47.3,0.5,29.41,NW,318,4.9,5.4,14,0.00,,---,0.00,VWS V13.01,2013-02-02 17:34:00,
2013-02-02 12:39:00,45.3,0.4,29.41,SSW,208,5.8,7.6,15,0.00,,---,0.00,VWS V13.01,2013-02-02 17:39:00,
2013-02-02 12:44:00,49.8,2.5,29.41,NNW,328,2.7,4.9,14,0.00,,---,0.00,VWS V13.01,2013-02-02 17:44:00,
2013-02-02 12:49:00,49.6,2.4,29.41,West,262,2.7,6.3,14,0.00,,---,0.00,VWS V13.01,2013-02-02 17:49:00,
2013-02-02 12:55:00,47.5,0.7,29.41,SW,236,0.0,5.4,14,0.00,,---,0.00,VWS V13.01,2013-02-02 17:55:00,
2013-02-02 13:00:00,47.3,0.5,29.41,West,274,0.0,7.2,14,0.00,,---,0.00,VWS V13.01,2013-02-02 18:00:00,
2013-02-02 13:05:00,46.9,0.2,29.38,NNW,343,0.0,5.8,14,0.00,,---,0.00,VWS V13.01,2013-02-02 18:05:00,
2013-02-02 13:10:00,44.6,-0.2,29.38,NNW,328,8.1,10.5,15,0.00,,---,0.00,VWS V13.01,2013-02-02 18:10:00,
2013-02-02 13:15:00,43.2,-1.4,29.38,NW,322,8.1,8.3,15,0.00,,---,0.00,VWS V13.01,2013-02-02 18:15:00,
2013-02-02 13:20:00,42.3,-0.7,29.38,WNW,302,7.6,8.7,16,0.00,,---,0.00,VWS V13.01,2013-02-02 18:20:00,
2013-02-02 13:25:00,41.0,-1.7,29.38,NW,317,6.3,9.6,16,0.00,,---,0.00,VWS V13.01,2013-02-02 18:25:00,
2013-02-02 13:30:00,40.3,-2.3,29.38,NNW,331,5.4,11.0,16,0.00,,---,0.00,VWS V13.01,2013-02-02 18:30:00,
2013-02-02 13:35:00,40.3,-2.3,29.38,NNW,335,5.4,5.8,16,0.00,,---,0.00,VWS V13.01,2013-02-02 18:35:00,
2013-02-02 13:40:00,40.1,-2.5,29.38,NNW,339,3.1,8.1,16,0.00,,---,0.00,VWS V13.01,2013-02-02 18:40:00,
2013-02-02 13:45:00,39.4,-3.1,29.38,NNW,332,4.9,8.3,16,0.00,,---,0.00,VWS V13.01,2013-02-02 18:45:00,
2013-02-02 13:50:00,38.8,-3.5,29.38,North,353,2.7,3.6,16,0.00,,---,0.00,VWS V13.01,2013-02-02 18:50:00,
2013-02-02 13:55:00,37.9,-4.2,29.38,NW,306,3.6,5.4,16,0.00,,---,0.00,VWS V13.01,2013-02-02 18:55:00,
2013-02-02 14:01:00,37.0,-3.7,29.38,NW,317,4.0,4.9,17,0.00,,---,0.00,VWS V13.01,2013-02-02 19:01:00,
2013-02-02 14:06:00,36.1,-4.5,29.35,NW,309,0.0,0.0,17,0.00,,---,0.00,VWS V13.01,2013-02-02 19:06:00,
2013-02-02 14:11:00,35.4,-5.1,29.35,NW,320,3.1,3.1,17,0.00,,---,0.00,VWS V13.01,2013-02-02 19:11:00,
2013-02-02 14:16:00,34.7,-5.6,29.35,NW,326,0.0,0.0,17,0.00,,---,0.00,VWS V13.01,2013-02-02 19:16:00,
2013-02-02 14:21:00,34.9,-5.5,29.35,NW,326,0.0,0.0,17,0.00,,---,0.00,VWS V13.01,2013-02-02 19:21:00,
2013-02-02 14:26:00,35.1,-5.3,29.35,NW,326,0.0,0.0,17,0.00,,---,0.00,VWS V13.01,2013-02-02 19:26:00,
2013-02-02 14:31:00,35.1,-5.3,29.35,NW,326,0.0,0.0,17,0.00,,---,0.00,VWS V13.01,2013-02-02 19:31:00,
2013-02-02 14:36:00,34.9,-5.5,29.35,NW,326,0.0,0.0,17,0.00,,---,0.00,VWS V13.01,2013-02-02 19:36:00,
2013-02-02 14:41:00,34.7,-5.6,29.35,NW,326,0.0,0.0,17,0.00,,---,0.00,VWS V13.01,2013-02-02 19:41:00,
2013-02-02 14:46:00,35.1,-5.3,29.35,NW,326,0.0,0.0,17,0.00,,---,0.00,VWS V13.01,2013-02-02 19:46:00,
2013-02-02 14:51:00,35.1,-5.3,29.32,NW,326,0.0,0.0,17,0.00,,---,0.00,VWS V13.01,2013-02-02 19:51:00,
2013-02-02 14:57:00,35.6,-4.9,29.32,NW,326,0.0,0.0,17,0.00,,---,0.00,VWS V13.01,2013-02-02 19:57:00,
2013-02-02 15:02:00,35.8,-4.8,29.32,NW,326,0.0,0.0,17,0.00,,---,0.00,VWS V13.01,2013-02-02 20:02:00,
2013-02-02 15:07:00,35.4,-5.1,29.32,NW,326,0.0,0.0,17,0.00,,---,0.00,VWS V13.01,2013-02-02 20:07:00,
2013-02-02 15:12:00,35.1,-5.3,29.32,NW,326,0.0,0.0,17,0.00,,---,0.00,VWS V13.01,2013-02-02 20:12:00,
2013-02-02 15:17:00,34.9,-5.5,29.32,NW,311,0.0,0.0,17,0.00,,---,0.00,VWS V13.01,2013-02-02 20:17:00,
2013-02-02 15:22:00,35.4,-5.1,29.32,NW,311,0.0,0.0,17,0.00,,---,0.00,VWS V13.01,2013-02-02 20:22:00,
2013-02-02 15:27:00,36.0,-4.6,29.32,NW,311,0.0,0.0,17,0.00,,---,0.00,VWS V13.01,2013-02-02 20:27:00,
2013-02-02 15:32:00,35.6,-4.9,29.32,North,357,3.6,4.0,17,0.00,,---,0.00,VWS V13.01,2013-02-02 20:32:00,
2013-02-02 15:37:00,35.6,-4.9,29.32,North,357,3.1,3.1,17,0.00,,---,0.00,VWS V13.01,2013-02-02 20:37:00,
2013-02-02 15:42:00,36.3,-4.3,29.32,North,353,0.0,3.1,17,0.00,,---,0.00,VWS V13.01,2013-02-02 20:42:00,
2013-02-02 15:47:00,36.3,-4.3,29.32,North,353,3.1,3.6,17,0.00,,---,0.00,VWS V13.01,2013-02-02 20:47:00,
2013-02-02 15:52:00,36.1,-4.5,29.32,NW,321,2.7,4.0,17,0.00,,---,0.00,VWS V13.01,2013-02-02 20:52:00,
2013-02-02 15:57:00,36.3,-4.3,29.32,NW,307,0.0,3.1,17,0.00,,---,0.00,VWS V13.01,2013-02-02 20:57:00,
2013-02-02 16:03:00,36.9,-3.9,29.32,NW,307,0.0,2.7,17,0.00,,---,0.00,VWS V13.01,2013-02-02 21:03:00,
2013-02-02 16:08:00,37.2,-3.6,29.32,NW,307,0.0,0.0,17,0.00,,---,0.00,VWS V13.01,2013-02-02 21:08:00,
2013-02-02 16:13:00,38.1,-4.1,29.32,NW,307,0.0,2.7,16,0.00,,---,0.00,VWS V13.01,2013-02-02 21:13:00,
2013-02-02 16:18:00,38.1,-4.1,29.29,NW,307,0.0,3.6,16,0.00,,---,0.00,VWS V13.01,2013-02-02 21:18:00,
2013-02-02 16:23:00,38.1,-4.1,29.29,NW,308,0.0,3.1,16,0.00,,---,0.00,VWS V13.01,2013-02-02 21:23:00,
2013-02-02 16:28:00,38.1,-4.1,29.29,NW,308,0.0,3.6,16,0.00,,---,0.00,VWS V13.01,2013-02-02 21:28:00,
2013-02-02 16:33:00,38.1,-4.1,29.29,NW,308,3.1,3.1,16,0.00,,---,0.00,VWS V13.01,2013-02-02 21:33:00,
2013-02-02 16:38:00,37.8,-4.4,29.29,NW,308,0.0,0.0,16,0.00,,---,0.00,VWS V13.01,2013-02-02 21:38:00,
2013-02-02 16:43:00,37.4,-4.7,29.29,NW,308,0.0,0.0,16,0.00,,---,0.00,VWS V13.01,2013-02-02 21:43:00,
2013-02-02 16:48:00,36.9,-3.9,29.29,NW,308,0.0,3.1,17,0.00,,---,0.00,VWS V13.01,2013-02-02 21:48:00,
2013-02-02 16:53:00,36.7,-4.0,29.29,NNW,328,3.6,4.0,17,0.00,,---,0.00,VWS V13.01,2013-02-02 21:53:00,
2013-02-02 16:58:00,36.0,-4.6,29.29,NNW,344,0.0,4.9,17,0.00,,---,0.00,VWS V13.01,2013-02-02 21:58:00,
2013-02-02 17:04:00,35.8,-4.8,29.29,NW,315,3.6,4.0,17,0.00,,---,0.00,VWS V13.01,2013-02-02 22:04:00,
2013-02-02 17:09:00,35.4,-5.1,29.29,NNW,328,0.0,3.6,17,0.00,,---,0.00,VWS V13.01,2013-02-02 22:09:00,
2013-02-02 17:14:00,35.1,-5.3,29.29,NNW,327,0.0,3.6,17,0.00,,---,0.00,VWS V13.01,2013-02-02 22:14:00,
2013-02-02 17:19:00,34.9,-5.5,29.29,NNW,327,0.0,3.1,17,0.00,,---,0.00,VWS V13.01,2013-02-02 22:19:00,
2013-02-02 17:24:00,34.7,-5.6,29.29,NNW,327,0.0,0.0,17,0.00,,---,0.00,VWS V13.01,2013-02-02 22:24:00,
2013-02-02 17:29:00,34.3,-5.9,29.29,NNW,341,2.7,3.1,17,0.00,,---,0.00,VWS V13.01,2013-02-02 22:29:00,
2013-02-02 17:34:00,33.8,-6.4,29.29,NW,326,0.0,2.7,17,0.00,,---,0.00,VWS V13.01,2013-02-02 22:34:00,
2013-02-02 17:39:00,33.4,-5.5,29.29,NW,326,0.0,0.0,18,0.00,,---,0.00,VWS V13.01,2013-02-02 22:39:00,
2013-02-02 17:44:00,33.1,-5.8,29.29,NW,326,0.0,0.0,18,0.00,,---,0.00,VWS V13.01,2013-02-02 22:44:00,
2013-02-02 17:49:00,33.1,-5.8,29.29,NW,325,0.0,0.0,18,0.00,,---,0.00,VWS V13.01,2013-02-02 22:49:00,
2013-02-02 17:54:00,32.9,-5.9,29.29,NW,325,0.0,0.0,18,0.00,,---,0.00,VWS V13.01,2013-02-02 22:54:00,
2013-02-02 18:00:00,32.7,-6.1,29.29,NW,325,0.0,0.0,18,0.00,,---,0.00,VWS V13.01,2013-02-02 23:00:00,
2013-02-02 18:05:00,32.7,-6.1,29.29,NW,325,0.0,0.0,18,0.00,,---,0.00,VWS V13.01,2013-02-02 23:05:00,
2013-02-02 18:10:00,32.9,-5.9,29.29,NW,325,0.0,0.0,18,0.00,,---,0.00,VWS V13.01,2013-02-02 23:10:00,
2013-02-02 18:15:00,32.7,-6.1,29.29,NW,325,0.0,0.0,18,0.00,,---,0.00,VWS V13.01,2013-02-02 23:15:00,
2013-02-02 18:20:00,32.7,-6.1,29.29,NW,325,0.0,0.0,18,0.00,,---,0.00,VWS V13.01,2013-02-02 23:20:00,
2013-02-02 18:25:00,32.7,-6.1,29.29,NW,325,0.0,0.0,18,0.00,,---,0.00,VWS V13.01,2013-02-02 23:25:00,
2013-02-02 18:30:00,32.7,-6.1,29.29,WNW,292,0.0,0.0,18,0.00,,---,0.00,VWS V13.01,2013-02-02 23:30:00,
2013-02-02 18:35:00,32.7,-6.1,29.32,WNW,292,0.0,0.0,18,0.00,,---,0.00,VWS V13.01,2013-02-02 23:35:00,
2013-02-02 18:40:00,32.7,-6.1,29.32,SE,124,0.0,0.0,18,0.00,,---,0.00,VWS V13.01,2013-02-02 23:40:00,
2013-02-02 18:45:00,32.7,-6.1,29.32,SSW,207,0.0,0.0,18,0.00,,---,0.00,VWS V13.01,2013-02-02 23:45:00,
2013-02-02 18:50:00,32.7,-6.1,29.32,SW,221,0.0,0.0,18,0.00,,---,0.00,VWS V13.01,2013-02-02 23:50:00,
2013-02-02 18:55:00,32.7,-3.9,29.32,NW,318,0.0,0.0,20,0.00,,---,0.00,VWS V13.01,2013-02-02 23:55:00,
2013-02-02 19:00:00,32.7,-3.9,29.32,NW,318,0.0,0.0,20,0.00,,---,0.00,VWS V13.01,2013-02-03 00:00:00,
2013-02-02 19:06:00,32.7,-3.9,29.29,SW,234,0.0,0.0,20,0.00,,---,0.00,VWS V13.01,2013-02-03 00:06:00,
2013-02-02 19:11:00,32.7,-3.9,29.29,SW,234,0.0,0.0,20,0.00,,---,0.00,VWS V13.01,2013-02-03 00:11:00,
2013-02-02 19:16:00,32.7,-3.9,29.29,SW,234,0.0,0.0,20,0.00,,---,0.00,VWS V13.01,2013-02-03 00:16:00,
2013-02-02 19:21:00,32.7,-3.9,29.29,SW,234,0.0,0.0,20,0.00,,---,0.00,VWS V13.01,2013-02-03 00:21:00,
2013-02-02 19:26:00,32.7,-3.9,29.29,SW,234,0.0,0.0,20,0.00,,---,0.00,VWS V13.01,2013-02-03 00:26:00,
2013-02-02 19:31:00,32.7,-3.9,29.29,West,278,0.0,0.0,20,0.00,,---,0.00,VWS V13.01,2013-02-03 00:31:00,
2013-02-02 19:36:00,32.9,-3.8,29.29,SW,222,0.0,0.0,20,0.00,,---,0.00,VWS V13.01,2013-02-03 00:36:00,
2013-02-02 19:41:00,32.9,-3.8,29.29,SW,233,0.0,0.0,20,0.00,,---,0.00,VWS V13.01,2013-02-03 00:41:00,
2013-02-02 19:46:00,33.1,-0.7,29.29,SW,227,0.0,3.6,23,0.00,,---,0.00,VWS V13.01,2013-02-03 00:46:00,
2013-02-02 19:51:00,33.1,-0.7,29.32,WSW,246,0.0,5.4,23,0.00,,---,0.00,VWS V13.01,2013-02-03 00:51:00,
2013-02-02 19:56:00,33.1,-0.7,29.32,WSW,257,0.0,3.1,23,0.00,,---,0.00,VWS V13.01,2013-02-03 00:56:00,
2013-02-02 20:01:00,33.1,-0.7,29.32,SW,214,0.0,0.0,23,0.00,,---,0.00,VWS V13.01,2013-02-03 01:01:00,
2013-02-02 20:07:00,33.1,-0.7,29.29,SW,216,0.0,0.0,23,0.00,,---,0.00,VWS V13.01,2013-02-03 01:07:00,
2013-02-02 20:12:00,33.1,-0.7,29.29,South,187,0.0,0.0,23,0.00,,---,0.00,VWS V13.01,2013-02-03 01:12:00,
2013-02-02 20:17:00,33.1,-0.7,29.29,West,272,0.0,2.2,23,0.00,,---,0.00,VWS V13.01,2013-02-03 01:17:00,
2013-02-02 20:22:00,33.1,-0.7,29.32,SW,221,0.0,0.0,23,0.00,,---,0.00,VWS V13.01,2013-02-03 01:22:00,
2013-02-02 20:27:00,33.3,-0.5,29.32,West,259,0.0,0.0,23,0.00,,---,0.00,VWS V13.01,2013-02-03 01:27:00,
2013-02-02 20:32:00,33.3,-0.5,29.32,SW,230,0.0,2.2,23,0.00,,---,0.00,VWS V13.01,2013-02-03 01:32:00,
2013-02-02 20:37:00,33.4,-0.4,29.29,WSW,246,0.0,3.6,23,0.00,,---,0.00,VWS V13.01,2013-02-03 01:37:00,
2013-02-02 20:42:00,33.4,-0.4,29.29,WNW,294,0.0,0.0,23,0.00,,---,0.00,VWS V13.01,2013-02-03 01:42:00,
2013-02-02 20:47:00,33.6,-0.2,29.29,SW,226,0.0,3.6,23,0.00,,---,0.00,VWS V13.01,2013-02-03 01:47:00,
2013-02-02 20:52:00,33.6,-0.2,29.29,WSW,254,0.0,0.0,23,0.00,,---,0.00,VWS V13.01,2013-02-03 01:52:00,
2013-02-02 20:57:00,33.6,-0.2,29.29,NW,321,0.0,0.0,23,0.00,,---,0.00,VWS V13.01,2013-02-03 01:57:00,
2013-02-02 21:02:00,33.6,-0.2,29.29,NNW,330,0.0,0.0,23,0.00,,---,0.00,VWS V13.01,2013-02-03 02:02:00,
2013-02-02 21:07:00,33.8,-1.0,29.29,NW,317,0.0,3.6,22,0.00,,---,0.00,VWS V13.01,2013-02-03 02:07:00,
2013-02-02 21:13:00,33.8,-1.0,29.29,SW,223,0.0,3.1,22,0.00,,---,0.00,VWS V13.01,2013-02-03 02:13:00,
2013-02-02 21:18:00,33.8,-1.0,29.29,SW,223,0.0,0.0,22,0.00,,---,0.00,VWS V13.01,2013-02-03 02:18:00,
2013-02-02 21:23:00,33.8,-1.0,29.29,NW,321,2.2,4.0,22,0.00,,---,0.00,VWS V13.01,2013-02-03 02:23:00,
2013-02-02 21:28:00,33.8,-1.0,29.29,NW,321,0.0,0.0,22,0.00,,---,0.00,VWS V13.01,2013-02-03 02:28:00,
2013-02-02 21:33:00,34.0,-0.9,29.29,West,266,0.0,0.0,22,0.00,,---,0.00,VWS V13.01,2013-02-03 02:33:00,
2013-02-02 21:38:00,34.0,-0.9,29.29,NW,317,0.0,0.0,22,0.00,,---,0.00,VWS V13.01,2013-02-03 02:38:00,
2013-02-02 21:43:00,34.3,-0.6,29.29,WSW,248,0.0,5.4,22,0.00,,---,0.00,VWS V13.01,2013-02-03 02:43:00,
2013-02-02 21:48:00,34.3,-0.6,29.29,SW,221,4.0,4.9,22,0.00,,---,0.00,VWS V13.01,2013-02-03 02:48:00,
2013-02-02 21:53:00,34.0,-0.9,29.29,SW,221,0.0,0.0,22,0.00,,---,0.00,VWS V13.01,2013-02-03 02:53:00,
2013-02-02 21:58:00,34.0,-0.9,29.29,West,259,0.0,4.0,22,0.00,,---,0.00,VWS V13.01,2013-02-03 02:58:00,
2013-02-02 22:03:00,34.2,-0.7,29.29,West,259,0.0,2.2,22,0.00,,---,0.00,VWS V13.01,2013-02-03 03:03:00,
2013-02-02 22:09:00,34.0,-0.9,29.29,West,259,2.7,2.7,22,0.00,,---,0.00,VWS V13.01,2013-02-03 03:09:00,
2013-02-02 22:14:00,34.0,-0.9,29.29,West,259,0.0,0.0,22,0.00,,---,0.00,VWS V13.01,2013-02-03 03:14:00,
2013-02-02 22:19:00,34.0,-0.9,29.29,WNW,300,0.0,0.0,22,0.00,,---,0.00,VWS V13.01,2013-02-03 03:19:00,
2013-02-02 22:24:00,34.0,-0.9,29.29,WNW,300,0.0,0.0,22,0.00,,---,0.00,VWS V13.01,2013-02-03 03:24:00,
2013-02-02 22:29:00,33.8,-1.0,29.29,WNW,300,0.0,0.0,22,0.00,,---,0.00,VWS V13.01,2013-02-03 03:29:00,
2013-02-02 22:34:00,33.6,-0.2,29.29,WNW,300,0.0,0.0,23,0.00,,---,0.00,VWS V13.01,2013-02-03 03:34:00,
2013-02-02 22:39:00,33.6,-0.2,29.29,WNW,300,0.0,0.0,23,0.00,,---,0.00,VWS V13.01,2013-02-03 03:39:00,
2013-02-02 22:44:00,33.4,-0.4,29.29,WNW,300,0.0,0.0,23,0.00,,---,0.00,VWS V13.01,2013-02-03 03:44:00,
2013-02-02 22:49:00,33.3,-0.5,29.26,WNW,300,0.0,0.0,23,0.00,,---,0.00,VWS V13.01,2013-02-03 03:49:00,
2013-02-02 22:54:00,33.1,-0.7,29.26,WNW,300,0.0,0.0,23,0.00,,---,0.00,VWS V13.01,2013-02-03 03:54:00,
2013-02-02 22:59:00,32.9,-0.8,29.26,WNW,300,0.0,0.0,23,0.00,,---,0.00,VWS V13.01,2013-02-03 03:59:00,
2013-02-02 23:05:00,32.7,-1.0,29.26,WNW,300,0.0,0.0,23,0.00,,---,0.00,VWS V13.01,2013-02-03 04:05:00,
2013-02-02 23:10:00,32.7,-1.0,29.26,WNW,300,0.0,0.0,23,0.00,,---,0.00,VWS V13.01,2013-02-03 04:10:00,
2013-02-02 23:15:00,32.5,-1.1,29.26,WNW,300,0.0,0.0,23,0.00,,---,0.00,VWS V13.01,2013-02-03 04:15:00,
2013-02-02 23:20:00,32.5,-1.1,29.26,WNW,300,0.0,0.0,23,0.00,,---,0.00,VWS V13.01,2013-02-03 04:20:00,
2013-02-02 23:25:00,32.4,-1.3,29.26,WNW,300,0.0,0.0,23,0.00,,---,0.00,VWS V13.01,2013-02-03 04:25:00,
2013-02-02 23:30:00,32.4,-1.3,29.26,WNW,300,0.0,0.0,23,0.00,,---,0.00,VWS V13.01,2013-02-03 04:30:00,
2013-02-02 23:35:00,32.2,-1.4,29.26,WNW,300,0.0,0.0,23,0.00,,---,0.00,VWS V13.01,2013-02-03 04:35:00,
2013-02-02 23:40:00,32.2,-1.4,29.26,WNW,300,0.0,0.0,23,0.00,,---,0.00,VWS V13.01,2013-02-03 04:40:00,
2013-02-02 23:45:00,32.2,-1.4,29.26,WNW,300,0.0,0.0,23,0.00,,---,0.00,VWS V13.01,2013-02-03 04:45:00,
2013-02-02 23:50:00,32.2,-1.4,29.26,WNW,300,0.0,0.0,23,0.00,,---,0.00,VWS V13.01,2013-02-03 04:50:00,
2013-02-02 23:55:00,32.2,-1.4,29.26,WNW,300,0.0,0.0,23,0.00,,---,0.00,VWS V13.01,2013-02-03 04:55:00,